Regional Weather Roundup
Issued by NWS

Home | Current Version | Previous Version | Text Only | Print | Product List | Glossary Off
Versions: 1 2 3 4 5 6 7 8 9 10 11 12 13 14 15 16 17 18 19 20 21 22 23 24 25 26 27 28 29 30 31 32 33 34 35 36 37 38 39 40 41 42 43 44 45 46 47 48 49 50

000
ASUS43 KDMX 191401
RWRIA

WEATHER ROUNDUP FOR IOWA
NATIONAL WEATHER SERVICE DES MOINES IA
900 AM CDT WED JUL 19 2017

NOTE: "FAIR" INDICATES FEW OR NO CLOUDS BELOW 12,000 FEET WITH NO
SIGNIFICANT WEATHER AND/OR OBSTRUCTIONS TO VISIBILITY.

* - THESE STATIONS ARE NOT NWS STATIONS...THUS NOT UNDER NWS
QUALITY CONTROL.  THEY ALSO DO NOT REPORT WEATHER SUCH
AS PRECIPITATION OR FOG.

IAZ001>003-012>014-020>022-031>034-043>046-191500-
   NORTHWEST IOWA

CITY           SKY/WX    TMP DP  RH WIND       PRES   REMARKS
CARROLL *      PTSUNNY   77  73  88 S10       30.06F
CHEROKEE *     MOSUNNY   79  74  83 SE7       30.04F HX  82
DENISON *      SUNNY     79  72  78 S13G20    30.05F HX  82
ORANGE CITY *  MOSUNNY   79  73  83 SE8       30.04F HX  82
SHELDON *      CLOUDY    75  72  88 MISG      30.04F
SIOUX CITY     SUNNY     81  74  79 S12       30.00F HX  86
SPENCER        PTSUNNY   75  71  87 E14       30.07S
STORM LAKE *   SUNNY     77  73  88 SE8       30.06F
$$

IAZ055>058-069>071-079>083-090>094-191500-
   SOUTHWEST IOWA

CITY           SKY/WX    TMP DP  RH WIND       PRES   REMARKS
ATLANTIC *     MOSUNNY   81  70  69 S16       30.06F HX  84
AUDUBON *      MOSUNNY   79  72  78 S8        30.08F HX  82
CLARINDA *     CLOUDY    75  70  83 S9G17     30.10F
COUNCIL BLFS * MOSUNNY   79  73  83 S15G22    30.06R HX  82
CRESTON *      CLOUDY    79  70  73 SW13      30.09F HX  81
HARLAN  *      MOSUNNY   81  72  74 S9G15     30.09F HX  84
LAMONI         CLOUDY    76  71  85 SW3       30.11S
RED OAK *      CLOUDY    79  72  78 S15       30.08R HX  82
SHENANDOAH *   CLOUDY    77  72  83 S14G21    30.08S
$$

IAZ047>049-059>061-072>074-084-191500-
   CENTRAL IOWA

CITY           SKY/WX    TMP DP  RH WIND       PRES   REMARKS
AMES           SUNNY     81  75  82 E6        30.07F HX  87
ANKENY *       MOSUNNY   82  72  69 SW3       30.08F HX  87
BOONE *        MOSUNNY   81  72  74 S6        30.07S HX  84
CHARITON *     CLOUDY    79  72  78 SW9       30.09F HX  82
DES MOINES     PTSUNNY   82  71  69 S5        30.07S HX  86
GRINNELL*      SUNNY     79  72  79 CALM      30.11S HX  83
KNOXVILLE *    PTSUNNY   79  72  78 CALM      30.09S HX  82
MARSHALLTOWN   MOSUNNY   79  75  87 E6        30.08F HX  83
NEWTON *       SUNNY     81  73  78 SW5       30.09S HX  85
PELLA *        MOSUNNY   82  70  66 W5        30.11S HX  86
PERRY *        CLOUDY    78  74  87 S5        30.08R HX  81
$$

IAZ004>006-015-016-023>025-035-036-191500-
   NORTH CENTRAL IOWA

CITY           SKY/WX    TMP DP  RH WIND       PRES   REMARKS
ALGONA *       PTSUNNY   75  75 100 SE6G15    30.08S
CLARION *      MOSUNNY   77  75  94 SE10      30.08S
ESTHERVILLE    CLOUDY    73  71  93 SE10      30.07F
FORT DODGE *   SUNNY     79  72  78 SE7       30.07F HX  82
MASON CITY     SUNNY     74  69  85 E9        30.11F
FOREST CITY *  PTSUNNY   73  70  88 E9        30.09F
WEBSTER CITY * SUNNY     79  73  83 E7        30.05F HX  82
IOWA FALLS *     N/A     77  71  82 E7        30.10S
$$

IAZ007>011-017>019-026>030-037>042-050>054-066-191500-
   NORTHEAST IOWA

CITY           SKY/WX    TMP DP  RH WIND       PRES   REMARKS
CEDAR RAPIDS   PTSUNNY   76  75  97 SW3       30.10S
CHARLES CITY * PTSUNNY   73  73 100 E8        30.12S
CLINTON *      SUNNY     76  72  87 W6        30.12R
DECORAH *      CLOUDY    72  68  88 E6        30.13S
DUBUQUE        SUNNY     76  70  82 NE7       30.13R
MONTICELLO *   SUNNY     77  73  88 CALM      30.11R
OELWEIN *      PTSUNNY   75  75 100 E8        30.12S
WATERLOO       CLOUDY    76  72  87 E8        30.08F
$$

IAZ064-065-067-068-078-191500-
   EAST CENTRAL IOWA

CITY           SKY/WX    TMP DP  RH WIND       PRES   REMARKS
DAVENPORT      MOSUNNY   78  73  84 W5        30.13R HX  81
IOWA CITY      SUNNY     78  73  84 CALM      30.12R HX  81
MUSCATINE *    SUNNY     79  73  83 CALM      30.11S HX  82
QUAD CITIES    PTSUNNY   81  73  76 W5        30.10R HX  86
$$

IAZ062-063-075>077-085>089-095>099-191500-
   SOUTHEAST IOWA

CITY           SKY/WX    TMP DP  RH WIND       PRES   REMARKS
BURLINGTON     MOSUNNY   82  76  81 SW5       30.11R HAZE    HX  89
FAIRFIELD *    PTSUNNY   82  73  74 VRB6      30.10S HX  88
FORT MADISON * SUNNY     82  75  78 SW5       30.11S HX  89
KEOKUK *       MOSUNNY   84  73  70 SW8       30.10F HX  91
OSKALOOSA *      N/A     80  72  76 CALM      30.11S HX  83
OTTUMWA        CLOUDY    82  71  69 W3        30.09F HX  86
$$

ABBREVIATIONS USED IN REMARKS
   TC - TEMPERATURES IN CELSIUS
  WCI - WIND CHILL INDEX
   HX - HEAT INDEX
  VSB - VISIBILITY
$$





USA.gov is the U.S. government's official web portal to all federal, state and local government web resources and services.